This demonstration page uses our WeatherBlox Daily Observations layout. Learn more.

Hourly Observations for July 10, 2017

Temp ( °F °C ) Dew Point ( °F °C ) Humidity (%) Winds ( mph kmh ) Pressure ( in mb ) Visibility ( mi km ) Precip ( " mm )
12:15 am 00:15 Partly Cloudy 68 20 64 18 88 88 Calm 30.09 1019 10 16.09344 0 0
12:35 am 00:35 Clear 68 20 64 18 88 88 Calm 30.09 1019 10 16.09344 0 0
12:55 am 00:55 Partly Cloudy 68 20 64 18 88 88 Calm 30.09 1019 10 16.09344 0 0
1:15 am 01:15 Partly Cloudy 68 20 64 18 88 88 Calm 30.09 1019 10 16.09344 0 0
1:35 am 01:35 Mostly Cloudy 68 20 64 18 88 88 Calm 30.09 1019 10 16.09344 0 0
1:55 am 01:55 Mostly Cloudy 68 20 64 18 88 88 Calm 30.09 1019 10 16.09344 0 0
2:15 am 02:15 Partly Cloudy 68 20 64 18 88 88 Calm 30.09 1019 10 16.09344 0 0
2:35 am 02:35 Partly Cloudy 68 20 64 18 88 88 Calm 30.09 1019 10 16.09344 0 0
2:55 am 02:55 Cloudy 68 20 64 18 88 88 Calm 30.09 1019 10 16.09344 0 0
3:15 am 03:15 Mostly Cloudy 68 20 64 18 88 88 Calm 30.09 1019 10 16.09344 0 0
3:35 am 03:35 Mostly Cloudy 68 20 64 18 88 88 Calm 30.09 1019 10 16.09344 0 0
3:55 am 03:55 Partly Cloudy 68 20 63 17 83 83 Calm 30.06 1018 10 16.09344 0 0
4:15 am 04:15 Partly Cloudy 66 19 63 17 88 88 Calm 30.06 1018 10 16.09344 0 0
4:35 am 04:35 Mostly Cloudy 66 19 63 17 88 88 Calm 30.06 1018 10 16.09344 0 0
4:55 am 04:55 Mostly Cloudy 66 19 64 18 94 94 Calm 30.06 1018 10 16.09344 0 0
5:15 am 05:15 Partly Cloudy 64 18 63 17 94 94 Calm 30.06 1018 10 16.09344 0 0
5:35 am 05:35 Clear 64 18 63 17 94 94 Calm 30.06 1018 10 16.09344 0 0
5:55 am 05:55 Sunny 64 18 64 18 100 100 Calm 30.06 1018 10 16.09344 0 0
6:15 am 06:15 Sunny 63 17 63 17 100 100 Calm 30.06 1018 10 16.09344 0 0
6:35 am 06:35 Sunny 64 18 64 18 100 100 Calm 30.06 1018 10 16.09344 0 0
6:55 am 06:55 Sunny 66 19 64 18 94 94 Calm 30.06 1018 10 16.09344 0 0
7:15 am 07:15 Sunny 68 20 64 18 88 88 Calm 30.06 1018 10 16.09344 0 0
7:35 am 07:35 Sunny 70 21 64 18 83 83 Calm 30.06 1018 10 16.09344 0 0
7:55 am 07:55 Sunny 72 22 64 18 78 78 Calm 30.06 1018 10 16.09344 0 0
8:15 am 08:15 Sunny 73 23 64 18 74 74 Calm 30.09 1019 10 16.09344 0 0
8:35 am 08:35 Sunny 73 23 66 19 78 78 Calm 30.09 1019 10 16.09344 0 0
8:55 am 08:55 Sunny 75 24 68 20 78 78 Calm 30.09 1019 10 16.09344 0 0
9:15 am 09:15 Sunny 77 25 68 20 74 74 Calm 30.09 1019 10 16.09344 0 0
9:35 am 09:35 Sunny 77 25 70 21 79 79 Calm 30.09 1019 10 16.09344 0 0
9:55 am 09:55 Sunny 79 26 70 21 74 74 Calm 30.09 1019 10 16.09344 0 0
10:15 am 10:15 Sunny 81 27 70 21 70 70 Calm 30.09 1019 10 16.09344 0 0
10:35 am 10:35 Sunny 82 28 70 21 66 66 NW 3 6 30.09 1019 10 16.09344 0 0
10:55 am 10:55 Sunny 82 28 68 20 62 62 W 3 6 30.09 1019 10 16.09344 0 0
11:15 am 11:15 Sunny 86 30 66 19 52 52 WNW 3 6 30.09 1019 10 16.09344 0 0
11:35 am 11:35 Sunny 86 30 63 17 46 46 S 3 6 30.09 1019 10 16.09344 0 0
11:55 am 11:55 Sunny 84 29 63 17 48 48 SW 6 9 30.09 1019 10 16.09344 0 0
12:15 pm 12:15 Sunny 86 30 64 18 49 49 Calm 30.09 1019 10 16.09344 0 0
12:35 pm 12:35 Sunny 88 31 66 19 49 49 SW 9 15 30.03 1017 10 16.09344 0 0
12:55 pm 12:55 Partly Cloudy 88 31 64 18 46 46 S 7 11 30.03 1017 10 16.09344 0 0
1:15 pm 13:15 Partly Cloudy 88 31 64 18 46 46 W 8 13 30.03 1017 10 16.09344 0 0
1:35 pm 13:35 Partly Cloudy 90 32 63 17 41 41 SW 12 19 30.03 1017 10 16.09344 0 0
1:55 pm 13:55 Partly Cloudy 90 32 64 18 43 43 WSW 8 13 30 1016 10 16.09344 0 0
2:15 pm 14:15 Partly Cloudy 90 32 63 17 41 41 SW 9 15 30 1016 10 16.09344 0 0
2:35 pm 14:35 Partly Cloudy 90 32 63 17 41 41 SW 12 19 30 1016 10 16.09344 0 0
2:55 pm 14:55 Sunny 91 33 64 18 41 41 SSW 10 17 30 1016 10 16.09344 0 0
3:15 pm 15:15 Partly Cloudy 91 33 64 18 41 41 SW 7 11 30 1016 10 16.09344 0 0
3:35 pm 15:35 Mostly Cloudy 90 32 64 18 43 43 SSW 7 11 29.97 1015 10 16.09344 0 0
3:55 pm 15:55 Mostly Cloudy 91 33 64 18 41 41 SW 7 11 29.97 1015 10 16.09344 0 0
4:15 pm 16:15 Partly Cloudy 91 33 64 18 41 41 SSW 8 13 29.97 1015 10 16.09344 0 0
4:35 pm 16:35 Partly Cloudy 90 32 63 17 41 41 SSW 8 13 29.97 1015 10 16.09344 0 0
4:55 pm 16:55 Sunny 90 32 64 18 43 43 SSW 9 15 29.94 1014 10 16.09344 0 0
5:15 pm 17:15 Sunny 90 32 63 17 41 41 SW 8 13 29.94 1014 10 16.09344 0 0
5:35 pm 17:35 Sunny 90 32 63 17 41 41 SW 8 13 29.94 1014 10 16.09344 0 0
5:55 pm 17:55 Partly Cloudy 90 32 64 18 43 43 SW 7 11 29.94 1014 10 16.09344 0 0
6:15 pm 18:15 Sunny 88 31 64 18 46 46 SW 6 9 29.94 1014 10 16.09344 0 0
6:35 pm 18:35 Sunny 88 31 64 18 46 46 SW 5 7 29.94 1014 10 16.09344 0 0
6:55 pm 18:55 Partly Cloudy 88 31 66 19 49 49 SW 3 6 29.94 1014 10 16.09344 0 0
7:15 pm 19:15 Partly Cloudy 86 30 68 20 55 55 Calm 29.94 1014 10 16.09344 0 0
7:35 pm 19:35 Mostly Cloudy 86 30 66 19 52 52 S 3 6 29.94 1014 10 16.09344 0 0
7:55 pm 19:55 Cloudy 86 30 68 20 55 55 SSW 3 6 29.94 1014 10 16.09344 0 0
8:15 pm 20:15 Cloudy 84 29 68 20 58 58 S 5 7 29.97 1015 10 16.09344 0 0
8:35 pm 20:35 Cloudy 82 28 68 20 62 62 SSW 3 6 29.97 1015 10 16.09344 0 0
8:55 pm 20:55 Cloudy 81 27 68 20 66 66 SSW 3 6 29.97 1015 10 16.09344 0 0
9:15 pm 21:15 Cloudy 82 28 68 20 62 62 SSW 5 7 29.97 1015 10 16.09344 0 0
9:35 pm 21:35 Cloudy 81 27 68 20 66 66 SSW 5 7 30 1016 10 16.09344 0 0
9:55 pm 21:55 Mostly Cloudy 81 27 68 20 66 66 S 6 9 29.97 1015 10 16.09344 0 0
10:15 pm 22:15 Mostly Cloudy 81 27 68 20 66 66 SSW 3 6 30 1016 10 16.09344 0 0
10:35 pm 22:35 Mostly Cloudy 81 27 68 20 66 66 SSW 3 6 30 1016 10 16.09344 0 0
10:55 pm 22:55 Mostly Cloudy 79 26 68 20 70 70 Calm 29.97 1015 10 16.09344 0 0
11:15 pm 23:15 Mostly Cloudy 79 26 66 19 65 65 SW 3 6 29.97 1015 10 16.09344 0 0
11:35 pm 23:35 Partly Cloudy 79 26 68 20 70 70 SSW 6 9 29.97 1015 10 16.09344 0 0
11:55 pm 23:55 Clear 77 25 68 20 74 74 W 8 13 30 1016 10 16.09344 0 0

Powered by AerisWeather